Farmville, Virginia, United States (23901)
Lat: 37.30N, Lon: 78.39W
Wx Zone: VAZ060
Local Info
Past Weather Observations for Yesterday

NOTE: This archive is for the closest National Weather Service station to Farmville. Information may differ from the station used for current weather conditions.

Click here for Long-term Archive

Time Weather Temperature Dewpoint Humidity Pressure Winds Precip Visibility
23:55
Clear
41°F / 5°C 25°F / -4°C 53% 30.06 in
(1018 mb)
W 3.5 mph
(W 6 kph)
- 10SM
23:35
Clear
43°F / 6°C 25°F / -4°C 49% 30.06 in
(1018 mb)
Calm - 10SM
23:15
Clear
43°F / 6°C 23°F / -5°C 46% 30.06 in
(1018 mb)
NW 3.5 mph
(NW 6 kph)
- 10SM
22:55
Clear
43°F / 6°C 23°F / -5°C 46% 30.06 in
(1018 mb)
Calm - 10SM
22:35
Clear
45°F / 7°C 23°F / -5°C 42% 30.04 in
(1017 mb)
W 3.5 mph
(W 6 kph)
- 10SM
22:15
Clear
43°F / 6°C 23°F / -5°C 46% 30.04 in
(1017 mb)
W 3.5 mph
(W 6 kph)
- 10SM
21:55
Clear
41°F / 5°C 23°F / -5°C 49% 30.04 in
(1017 mb)
Calm - 10SM
21:35
Clear
43°F / 6°C 23°F / -5°C 46% 30.04 in
(1017 mb)
Calm - 10SM
21:15
Clear
43°F / 6°C 23°F / -5°C 46% 30.04 in
(1017 mb)
SW 3.5 mph
(SW 6 kph)
- 10SM
20:55
Clear
45°F / 7°C 21°F / -6°C 39% 30.04 in
(1017 mb)
SSW 4.6 mph
(SSW 7 kph)
- 10SM
20:35
Clear
45°F / 7°C 23°F / -5°C 42% 30.04 in
(1017 mb)
SW 5.8 mph
(SW 9 kph)
- 10SM
20:15
Clear
46°F / 8°C 21°F / -6°C 37% 30.04 in
(1017 mb)
SW 3.5 mph
(SW 6 kph)
- 10SM
19:55
Clear
46°F / 8°C 21°F / -6°C 37% 30.04 in
(1017 mb)
Calm - 10SM
19:35
Clear
46°F / 8°C 23°F / -5°C 40% 30.04 in
(1017 mb)
SSW 3.5 mph
(SSW 6 kph)
- 10SM
19:15
Clear
48°F / 9°C 23°F / -5°C 37% 30.04 in
(1017 mb)
SSW 3.5 mph
(SSW 6 kph)
- 10SM
18:55
Clear
48°F / 9°C 25°F / -4°C 40% 30.04 in
(1017 mb)
SSW 4.6 mph
(SSW 7 kph)
- 10SM
18:35
Clear
46°F / 8°C 27°F / -3°C 46% 30.04 in
(1017 mb)
SSW 4.6 mph
(SSW 7 kph)
- 10SM
18:15
Clear
46°F / 8°C 27°F / -3°C 46% 30.04 in
(1017 mb)
SSW 4.6 mph
(SSW 7 kph)
- 10SM
17:55
Clear
46°F / 8°C 28°F / -2°C 50% 30.01 in
(1016 mb)
SSW 4.6 mph
(SSW 7 kph)
- 10SM
17:35
Clear
48°F / 9°C 27°F / -3°C 43% 30.01 in
(1016 mb)
SW 3.5 mph
(SW 6 kph)
- 10SM
17:15
Clear
50°F / 10°C 27°F / -3°C 40% 30.01 in
(1016 mb)
SSW 4.6 mph
(SSW 7 kph)
- 10SM
16:55
Clear
52°F / 11°C 28°F / -2°C 41% 30.01 in
(1016 mb)
Calm - 10SM
16:35
Clear
55°F / 13°C 30°F / -1°C 38% 30.01 in
(1016 mb)
SSW 3.5 mph
(SSW 6 kph)
- 10SM
16:15
Clear
57°F / 14°C 28°F / -2°C 33% 29.98 in
(1015 mb)
SSW 5.8 mph
(SSW 9 kph)
- 10SM
15:55
Clear
59°F / 15°C 30°F / -1°C 34% 29.98 in
(1015 mb)
SSW 6.9 mph
(SSW 11 kph)
- 10SM
15:35
Clear
59°F / 15°C 30°F / -1°C 34% 29.98 in
(1015 mb)
SSW 8.1 mph
(SSW 13 kph)
- 10SM
15:15
Clear
59°F / 15°C 32°F / 0°C 36% 29.98 in
(1015 mb)
SSW 9.2 mph
(SSW 15 kph)
- 10SM
14:55
Clear
59°F / 15°C 32°F / 0°C 36% 29.98 in
(1015 mb)
SSW 9.2 mph
(SSW 15 kph)
- 10SM
14:35
Clear
59°F / 15°C 32°F / 0°C 36% 29.98 in
(1015 mb)
SSW 3.5 mph
(SSW 6 kph)
- 10SM
14:15
Partly Cloudy
61°F / 16°C 32°F / 0°C 34% 29.98 in
(1015 mb)
SW 6.9 mph
(SW 11 kph)
- 10SM
13:55
Clear
61°F / 16°C 34°F / 1°C 36% 29.98 in
(1015 mb)
SSW 6.9 mph
(SSW 11 kph)
- 10SM
13:35
Partly Cloudy
59°F / 15°C 32°F / 0°C 36% 30.01 in
(1016 mb)
SSW 6.9 mph
(SSW 11 kph)
- 10SM
13:15
Partly Cloudy
61°F / 16°C 34°F / 1°C 36% 30.01 in
(1016 mb)
SW 8.1 mph
(SW 13 kph)
- 10SM
12:55
Partly Cloudy
61°F / 16°C 37°F / 3°C 42% 30.01 in
(1016 mb)
SW 8.1 mph
(SW 13 kph)
- 10SM
12:35
Partly Cloudy
59°F / 15°C 36°F / 2°C 42% 30.01 in
(1016 mb)
SW 6.9 mph
(SW 11 kph)
- 10SM
12:15
Partly Cloudy
59°F / 15°C 37°F / 3°C 45% 30.04 in
(1017 mb)
SW 10.4 mph
(SW 17 kph)
- 10SM
11:55
Clear
55°F / 13°C 36°F / 2°C 47% 30.04 in
(1017 mb)
SSW 4.6 mph
(SSW 7 kph)
- 10SM
11:35
Partly Cloudy
57°F / 14°C 36°F / 2°C 44% 30.04 in
(1017 mb)
SSW 8.1 mph
(SSW 13 kph)
- 10SM
11:15
Partly Cloudy
57°F / 14°C 37°F / 3°C 48% 30.04 in
(1017 mb)
SSW 10.4 mph
(SSW 17 kph)
- 10SM
10:55
Clear
57°F / 14°C 37°F / 3°C 48% 30.04 in
(1017 mb)
SSW 9.2 mph
(SSW 15 kph)
- 10SM
10:35
Clear
57°F / 14°C 39°F / 4°C 51% 30.06 in
(1018 mb)
SSW 5.8 mph
(SSW 9 kph)
- 10SM
10:15
Partly Cloudy
55°F / 13°C 39°F / 4°C 55% 30.06 in
(1018 mb)
SSW 8.1 mph
(SSW 13 kph)
- 10SM
09:55
Partly Cloudy
55°F / 13°C 41°F / 5°C 59% 30.06 in
(1018 mb)
SSW 5.8 mph
(SSW 9 kph)
- 10SM
09:35
Partly Cloudy
54°F / 12°C 41°F / 5°C 63% 30.06 in
(1018 mb)
SW 6.9 mph
(SW 11 kph)
- 10SM
09:15
Clear
54°F / 12°C 41°F / 5°C 63% 30.06 in
(1018 mb)
SW 5.8 mph
(SW 9 kph)
- 10SM
08:55
Clear
52°F / 11°C 41°F / 5°C 67% 30.04 in
(1017 mb)
SSW 5.8 mph
(SSW 9 kph)
- 10SM
08:35
Clear
50°F / 10°C 41°F / 5°C 71% 30.04 in
(1017 mb)
SW 3.5 mph
(SW 6 kph)
- 10SM
08:15
Partly Cloudy
48°F / 9°C 39°F / 4°C 71% 30.04 in
(1017 mb)
SSW 5.8 mph
(SSW 9 kph)
- 10SM
07:55
Mostly Cloudy
48°F / 9°C 39°F / 4°C 71% 30.04 in
(1017 mb)
SSW 6.9 mph
(SSW 11 kph)
- 10SM
07:35
Partly Cloudy
46°F / 8°C 39°F / 4°C 76% 30.04 in
(1017 mb)
SSW 4.6 mph
(SSW 7 kph)
- 10SM
07:15
Clear
46°F / 8°C 39°F / 4°C 76% 30.01 in
(1016 mb)
SSW 5.8 mph
(SSW 9 kph)
- 10SM
06:55
Clear
46°F / 8°C 39°F / 4°C 76% 30.01 in
(1016 mb)
SSW 5.8 mph
(SSW 9 kph)
- 10SM
06:35
Clear
46°F / 8°C 39°F / 4°C 76% 30.01 in
(1016 mb)
SSW 4.6 mph
(SSW 7 kph)
- 10SM
06:15
Clear
46°F / 8°C 39°F / 4°C 76% 30.01 in
(1016 mb)
SSW 5.8 mph
(SSW 9 kph)
- 10SM
05:55
Clear
45°F / 7°C 39°F / 4°C 81% 29.98 in
(1015 mb)
SSW 6.9 mph
(SSW 11 kph)
- 10SM
05:35
Clear
43°F / 6°C 39°F / 4°C 87% 29.98 in
(1015 mb)
SSW 3.5 mph
(SSW 6 kph)
- 10SM
05:15
Clear
43°F / 6°C 39°F / 4°C 87% 29.98 in
(1015 mb)
SW 3.5 mph
(SW 6 kph)
- 10SM
04:55
Clear
43°F / 6°C 41°F / 5°C 93% 29.98 in
(1015 mb)
SW 4.6 mph
(SW 7 kph)
- 10SM
04:35
Clear
43°F / 6°C 41°F / 5°C 93% 29.98 in
(1015 mb)
SW 3.5 mph
(SW 6 kph)
- 10SM
04:15
Clear
43°F / 6°C 39°F / 4°C 87% 29.95 in
(1014 mb)
SW 3.5 mph
(SW 6 kph)
- 10SM
03:55
Clear
45°F / 7°C 39°F / 4°C 81% 29.95 in
(1014 mb)
SW 3.5 mph
(SW 6 kph)
- 10SM
03:35
Clear
46°F / 8°C 39°F / 4°C 76% 29.95 in
(1014 mb)
SSW 3.5 mph
(SSW 6 kph)
- 10SM
03:15
Clear
46°F / 8°C 39°F / 4°C 76% 29.95 in
(1014 mb)
SSW 3.5 mph
(SSW 6 kph)
- 10SM
02:55
Clear
46°F / 8°C 43°F / 6°C 87% 29.98 in
(1015 mb)
SSW 5.8 mph
(SSW 9 kph)
- 10SM
02:35
Clear
45°F / 7°C 43°F / 6°C 93% 29.95 in
(1014 mb)
SSW 3.5 mph
(SSW 6 kph)
- 10SM
02:15
Clear
46°F / 8°C 45°F / 7°C 93% 29.95 in
(1014 mb)
SSE 3.5 mph
(SSE 6 kph)
- 10SM
01:55
Clear
45°F / 7°C 45°F / 7°C 100% 29.95 in
(1014 mb)
SSW 4.6 mph
(SSW 7 kph)
- 10SM
01:35
Clear
45°F / 7°C 45°F / 7°C 100% 29.92 in
(1013 mb)
SSW 5.8 mph
(SSW 9 kph)
- 10SM
01:15
Clear
43°F / 6°C 43°F / 6°C 100% 29.92 in
(1013 mb)
SSW 4.6 mph
(SSW 7 kph)
- 10SM
00:55
Clear
43°F / 6°C 43°F / 6°C 100% 29.92 in
(1013 mb)
SSW 4.6 mph
(SSW 7 kph)
- 10SM
00:35
Partly Cloudy
Fog And Mist
41°F / 5°C 41°F / 5°C 100% 29.92 in
(1013 mb)
Calm - 3SM
00:15
Mostly Cloudy
Fog
39°F / 4°C 39°F / 4°C 100% 29.92 in
(1013 mb)
Calm - 1/2SM
Time Weather Temperature Dewpoint Humidity Pressure Winds Precip Visibility


Weather for websites

WeatherForYou.com, LLC is not responsible for any damages or problems caused by this service. Current weather conditions are obtained from the closest station including government and personal stations which may have varying degrees of accuracy. Weather forecasts are derived from the NOAA NDFD. Like all things, this site belongs to Jesus Christ... He just trusts me to maintain it. If you have any questions or comments email webmaster@weatherforyou.com

Copyright © 2014, WeatherForYou.com LLC. All rights reserved.